Miscellaneous Local Product
Issued by NWS North Platte, NE

Home | Current Version | Previous Version | Text Only | Print | Product List | Glossary On
Versions: 1 2 3 4 5 6 7 8 9 10 11 12 13 14 15 16 17 18 19 20 21 22 23 24 25 26 27 28 29 30 31 32 33 34 35 36 37 38 39 40 41 42 43 44 45 46 47 48 49 50
765
AXUS43 KLBF 211810
MISLBF


WESTERN AND NORTH CENTRAL NEBRASKA HOURLY WEATHER ROUNDUP
NATIONAL WEATHER SERVICE NORTH PLATTE NE
100 PM CDT SAT OCT 21 2017

NOTE: "FAIR" INDICATES FEW OR NO CLOUDS BELOW 12,000 FEET WITH NO
SIGNIFICANT WEATHER AND/OR OBSTRUCTIONS TO VISIBILITY.

NOTE: STATIONS NOT REPORTING VARIABLES SUCH AS SKY/WEATHER OR
PRESSURE ARE PROVIDED BY RAWS AND APRS NETWORKS AND ARE NOT UNDER
NATIONAL WEATHER SERVICE QUALITY CONTROL.

...OBSERVATIONS IN AND NEAR THE EASTERN PANHANDLE OF NEBRASKA...

CITY           SKY/WX    TMP DP  RH WIND       PRES   REMARKS
PINE RIDGE     SUNNY     55  25  31 NW18G31   29.86S
GORDON         FAIR      54  27  35 W16G23    29.86R
CHADRON        SUNNY     56  16  20 NW24G35   29.90R
ALLIANCE       SUNNY     53  21  28 NW24      29.90S
SIDNEY         SUNNY     54  20  26 NW23G36   29.95R
CRESCENT LAKE    N/A     53  22  29 NW16G26     N/A
$$

...OBSERVATIONS IN NORTHERN NEBRASKA AND FAR SOUTHERN SOUTH DAKOTA...

CITY           SKY/WX    TMP DP  RH WIND       PRES   REMARKS
WINNER         LGT RAIN  48  41  76 NW13      29.80R
VALENTINE      CLOUDY    48  41  76 W7        29.84S
THEDFORD       CLOUDY    46  41  84 NW13      29.88S
AINSWORTH      LGT RAIN  46  42  88 NW16G23   29.85R
O`NEILL        CLOUDY    51  39  64 NW28G36   29.81R
ORD            CLOUDY    53  39  59 NW26G41   29.80R
BROKEN BOW     CLOUDY    51  39  63 NW31G39   29.84R
VALENTINE NWR    N/A     43  39  87 NW13G20     N/A
HALSEY           N/A     44  43  95 NW9G18      N/A
BUTTE            N/A     48  39  72 NW22G32     N/A
CHAMBERS         N/A     51  37  59 W8G20       N/A
EWING            N/A     54  41  61 NW20G30     N/A
$$

...OBSERVATIONS IN SOUTHWEST NEBRASKA AND FAR NORTHEAST COLORADO...

CITY           SKY/WX    TMP DP  RH WIND       PRES   REMARKS
WRAY           FAIR      57  25  28 NW25G35   29.94S
HOLYOKE        FAIR      59  25  27 NW22G33   29.94R
IMPERIAL       MOSUNNY   58  27  30 N26G36    29.91R
OGALLALA       SUNNY     57  26  29 NW20G31   29.90R
NORTH PLATTE   PTSUNNY   52  41  66 NW17G29   29.89R
MCCOOK         CLOUDY    56  37  49 NW24G37   29.90R
LEXINGTON      CLOUDY    56  41  55 NW25G31   29.85R
STAPLETON        N/A     46  41  82 NW6G15      N/A
GOTHENBURG       N/A     51  38  61 NW17        N/A
CALLAWAY         N/A     49  41  73 N23         N/A
$$

...OBSERVATIONS IN CENTRAL LINCOLN COUNTY AREA...

CITY           SKY/WX    TMP DP  RH WIND       PRES   REMARKS
N.P. AIRPORT   PTSUNNY   52  41  66 NW17G29   29.89R
N.P. DOWNTOWN    N/A     51  42  70 NW8         N/A
N.P. SOUTHEAST   N/A     51  41  68 N9G20       N/A
N.P. HILLCREST   N/A     51  41  69 N17G26      N/A
$$

...SOME OBSERVATIONS FROM AROUND THE REGION...

CITY           SKY/WX    TMP DP  RH WIND       PRES   REMARKS
DENVER         MOSUNNY   51   9  18 W25G33    30.03R
LIMON          SUNNY     52  12  20 NW25G38   30.00R
ASPEN          PTSUNNY   34  24  67 N7        30.17R WCI  28
LARAMIE        SUNNY     38  14  37 W25G32    30.04R WCI  27
CASPER         MOSUNNY   48  11  22 W13G18    29.98S
CHEYENNE       SUNNY     44  14  29 W33G46    29.99R
SCOTTSBLUFF    SUNNY     55  19  24 W20G29    29.93S
GRAND ISLAND   CLOUDY    57  41  55 NW29G44   29.78R
OMAHA          CLOUDY    73  62  68 S20       29.66R
SIOUX FALLS    CLOUDY    60  48  64 W20G32    29.62R
PIERRE         CLOUDY    51  43  74 W12       29.75R
RAPID CITY     CLOUDY    55  21  26 NW28G35   29.82F
BISMARCK       LGT RAIN  50  42  74 W14G21    29.64R
KANSAS CITY    CLOUDY    72  63  73 S26G35    29.80S
HILL CITY      CLOUDY    62  37  39 N23G37    29.87R
WICHITA        CLOUDY    74  66  76 S26G32    29.78R
DODGE CITY     SUNNY     68  30  24 N22G36    29.88R
OKLAHOMA CITY  PTSUNNY   76  64  66 S21G31    29.85F
DALLAS         PTSUNNY   82  67  60 S15       29.89F
AMARILLO       SUNNY     78  38  23 W20G26    29.86R
$$




USA.gov is the U.S. government's official web portal to all federal, state and local government web resources and services.